Location: D�derode
(51.8092°N, 10.1065°E)
Time: 06:30:37
(UTC+00:00)

NOSS 3-3 (C) - Pass Details

Date: 01 December 2020
Orbit: 820 x 1392 km, 63.4° (Epoch: 22 January)

Event Time Altitude Azimuth Distance (km) Brightness Sun altitude
Rises 17:31:00 0° 314° (NW) 3,894 7.7 -20.4°
Reaches altitude 10° 17:33:31 10° 314° (NW) 3,013 7.0 -20.8°
Maximum altitude 17:40:51 89° 228° (SW) 1,249 4.5 -21.9°
Enters shadow 17:48:01 15° 138° (SE) 3,000 6.2 -23.0°
